Change the Weather History Date:

Tuesday, July 2, 2013

  Actual Average Record
Temperature  
Mean Temperature 64 °F -  
Max Temperature 80 °F 78 °F 95 °F (2012)
Min Temperature 48 °F 57 °F 48 °F (2011)
Degree Days  
Heating Degree Days 1    
Growing Degree Days 14 (Base 50)    
Moisture  
Dew Point 48 °F    
Average Humidity 57    
Maximum Humidity 100    
Minimum Humidity 28    
Precipitation  
Precipitation 0.00 in - - ()
Sea Level Pressure  
Sea Level Pressure 30.08 in    
Wind  
Wind Speed 3 mph ()    
Max Wind Speed 8 mph    
Max Gust Speed -    
Visibility 6.2 miles    
Events      
Averages and records for this station are not official NWS values.
T = Trace of Precipitation, MM = Missing Value Source: Averaged Metar Reports

Daily Weather History Graph

Daily Weather History Graph

Search for Another Location

Airport or City:

Trip Planner

Search our weather history database for the weather conditions in past years. The results will help you decide how hot, cold, wet, or windy it might be!

Date:

Astronomy

Jul. 02, 2013 Rise Set
Actual Time 4:50 AM CEST 8:43 PM CEST
Civil Twilight 4:10 AM CEST 9:23 PM CEST
Nautical Twilight 3:15 AM CEST 10:17 PM CEST
Astronomical Twilight 1:52 AM CEST 11:40 PM CEST
Moon 12:56 AM CEST (7/2) 3:28 PM CEST (7/2)
Length of Visible Light 17h 12m
Length of Day
15h 52m
Waning Crescent, 29% of the Moon is Illuminated
Jul 2
Waning Crescent
Jul 8
New
Jul 16
First Quarter
Jul 22
Full
Jul 29
Last Quarter

Hourly Weather History & Observations

Time (CEST) Temp. Dew Point Humidity Pressure Visibility Wind Dir Wind Speed Gust Speed Precip Events Conditions
12:00 AM 53.6 °F 48.2 °F 82% 30.09 in - Variable 1.2 mph - N/A   Clear
12:30 AM 51.8 °F 48.2 °F 88% 30.09 in - Calm Calm - N/A   Clear
1:00 AM 51.8 °F 48.2 °F 88% 30.09 in - Calm Calm - N/A   Clear
1:30 AM 50.0 °F 48.2 °F 94% 30.09 in - Calm Calm - N/A   Clear
2:00 AM 50.0 °F 48.2 °F 94% 30.09 in - Calm Calm - N/A   Clear
2:30 AM 50.0 °F 48.2 °F 94% 30.09 in - Calm Calm - N/A   Clear
3:00 AM 50.0 °F 46.4 °F 87% 30.09 in - Calm Calm - N/A   Clear
3:30 AM 51.8 °F 50.0 °F 94% 30.09 in - Variable 2.3 mph - N/A   Clear
4:00 AM 51.8 °F 48.2 °F 88% 30.09 in - Variable 2.3 mph - N/A   Clear
4:30 AM 48.2 °F 46.4 °F 93% 30.12 in - NNW 4.6 mph - N/A   Clear
5:00 AM 48.2 °F 46.4 °F 93% 30.12 in - NNW 4.6 mph - N/A   Clear
5:30 AM 48.2 °F 46.4 °F 93% 30.12 in - Variable 1.2 mph - N/A   Clear
6:00 AM 50.0 °F 50.0 °F 100% 30.12 in - Variable 2.3 mph - N/A   Clear
6:30 AM 53.6 °F 51.8 °F 94% 30.12 in - Variable 2.3 mph - N/A   Clear
7:00 AM 59.0 °F 55.4 °F 88% 30.12 in - Variable 2.3 mph - N/A   Clear
7:30 AM 62.6 °F 53.6 °F 72% 30.12 in - Variable 2.3 mph - N/A   Clear
8:00 AM 64.4 °F 51.8 °F 64% 30.12 in - Variable 2.3 mph - N/A   Clear
8:30 AM 68.0 °F 51.8 °F 56% 30.12 in - Variable 1.2 mph - N/A   Clear
9:00 AM 68.0 °F 50.0 °F 52% 30.12 in - Variable 1.2 mph - N/A   Clear
9:30 AM 71.6 °F 48.2 °F 43% 30.12 in - Variable 3.5 mph - N/A   Clear
10:00 AM 73.4 °F 50.0 °F 44% 30.12 in 6.2 mi Variable 3.5 mph - N/A   Partly Cloudy
10:30 AM 73.4 °F 46.4 °F 38% 30.12 in 6.2 mi South 4.6 mph - N/A   Partly Cloudy
11:00 AM 75.2 °F 46.4 °F 36% 30.12 in - NNE 5.8 mph - N/A   Clear
11:30 AM 75.2 °F 42.8 °F 31% 30.09 in - WSW 4.6 mph - N/A   Clear
12:00 PM 75.2 °F 44.6 °F 34% 30.09 in - SE 6.9 mph - N/A   Clear
12:30 PM 77.0 °F 46.4 °F 34% 30.09 in - South 6.9 mph - N/A   Clear
1:00 PM 77.0 °F 46.4 °F 34% 30.09 in - East 6.9 mph - N/A   Clear
1:30 PM 77.0 °F 44.6 °F 32% 30.09 in - South 8.1 mph - N/A   Clear
2:00 PM 77.0 °F 44.6 °F 32% 30.09 in - ENE 4.6 mph - N/A   Clear
2:30 PM 80.6 °F 44.6 °F 28% 30.06 in - South 8.1 mph - N/A   Clear
3:00 PM 78.8 °F 42.8 °F 28% 30.06 in - NW 6.9 mph - N/A   Clear
3:30 PM 78.8 °F 42.8 °F 28% 30.06 in - Variable 3.5 mph - N/A   Clear
4:00 PM 78.8 °F 44.6 °F 30% 30.06 in - Variable 3.5 mph - N/A   Clear
4:30 PM 78.8 °F 42.8 °F 28% 30.04 in - SSE 5.8 mph - N/A   Clear
5:00 PM 78.8 °F 44.6 °F 30% 30.04 in - SE 6.9 mph - N/A   Clear
5:30 PM 78.8 °F 44.6 °F 30% 30.04 in - South 6.9 mph - N/A   Clear
6:00 PM 78.8 °F 44.6 °F 30% 30.04 in - Variable 3.5 mph - N/A   Clear
6:30 PM 78.8 °F 44.6 °F 30% 30.04 in - SSE 5.8 mph - N/A   Clear
7:00 PM 78.8 °F 46.4 °F 32% 30.04 in - SE 8.1 mph - N/A   Clear
7:30 PM 77.0 °F 46.4 °F 34% 30.04 in - SE 8.1 mph - N/A   Clear
8:00 PM 77.0 °F 46.4 °F 34% 30.04 in - SSE 6.9 mph - N/A   Clear
8:30 PM 71.6 °F 50.0 °F 46% 30.04 in - ESE 5.8 mph - N/A   Clear
9:00 PM 68.0 °F 50.0 °F 52% 30.04 in - East 5.8 mph - N/A   Clear
9:30 PM 66.2 °F 51.8 °F 60% 30.06 in - East 4.6 mph - N/A   Clear
10:00 PM 64.4 °F 50.0 °F 59% 30.06 in - East 4.6 mph - N/A   Clear
10:30 PM 62.6 °F 50.0 °F 63% 30.06 in - Variable 3.5 mph - N/A   Clear
11:00 PM 60.8 °F 50.0 °F 68% 30.06 in - Variable 3.5 mph - N/A   Clear
11:30 PM 60.8 °F 51.8 °F 72% 30.06 in - Variable 2.3 mph - N/A   Clear